QPF
0.02 0.02 0.02 0.01 0.01 0.01 0.00 0.00 0.00 0.00 0.00 0.00 0.00 0.00 0.00 0.00 0.00 0.00 0.00 0.00 0.01 0.01 0.01 0.01 0.01 0.01 0.01 0.01 0.01 0.01 0.01 0.01 0.00 0.01 0.01 0.02 0.03 0.04 0.04 0.02 0.01 0.01 0.02
0.02 0.02 0.02 0.01 0.01 0.00 0.00 0.00 0.00 0.00 0.00 0.00 0.00 0.00 0.00 0.00 0.00 0.00 0.00 0.00 0.00 0.01 0.00 0.00 0.00 0.00 0.00 0.01 0.01 0.01 0.01 0.01 0.00 0.01 0.01 0.02 0.04 0.06 0.07 0.04 0.01 0.02 0.02
0.01 0.01 0.01 0.01 0.01 0.01 0.00 0.00 0.00 0.00 0.00 0.00 0.00 0.00 0.00 0.00 0.00 0.00 0.00 0.00 0.00 0.01 0.00 0.00 0.00 0.00 0.00 0.00 0.01 0.01 0.01 0.01 0.01 0.02 0.02 0.01 0.03 0.04 0.05 0.04 0.02 0.02 0.02
0.01 0.01 0.00 0.01 0.01 0.01 0.01 0.01 0.01 0.00 0.00 0.00 0.00 0.00 0.00 0.00 0.00 0.00 0.00 0.00 0.01 0.01 0.01 0.00 0.00 0.00 0.00 0.00 0.00 0.01 0.02 0.03 0.03 0.03 0.02 0.02 0.02 0.03 0.04 0.04 0.02 0.02 0.02
0.01 0.01 0.01 0.01 0.01 0.01 0.01 0.01 0.01 0.00 0.00 0.00 0.00 0.00 0.00 0.00 0.00 0.00 0.00 0.00 0.00 0.00 0.01 0.00 0.00 0.00 0.00 0.00 0.00 0.01 0.01 0.03 0.03 0.03 0.03 0.03 0.03 0.04 0.04 0.03 0.02 0.01 0.01
0.01 0.01 0.01 0.01 0.02 0.02 0.02 0.02 0.02 0.01 0.00 0.00 0.00 0.00 0.00 0.00 0.01 0.01 0.01 0.00 0.00 0.00 0.00 0.00 0.00 0.00 0.00 0.00 0.00 0.01 0.01 0.03 0.03 0.02 0.02 0.02 0.03 0.04 0.05 0.04 0.03 0.02 0.02
0.01 0.01 0.02 0.02 0.01 0.02 0.02 0.02 0.02 0.01 0.01 0.00 0.01 0.01 0.01 0.01 0.01 0.01 0.01 0.01 0.01 0.00 0.01 0.01 0.01 0.01 0.01 0.00 0.00 0.01 0.01 0.02 0.02 0.01 0.01 0.02 0.02 0.04 0.06 0.06 0.05 0.03 0.02
0.01 0.01 0.01 0.01 0.01 0.01 0.01 0.01 0.01 0.01 0.01 0.01 0.01 0.01 0.01 0.01 0.02 0.02 0.01 0.01 0.01 0.01 0.01 0.01 0.01 0.01 0.01 0.01 0.00 0.01 0.01 0.02 0.01 0.01 0.01 0.01 0.02 0.04 0.06 0.08 0.07 0.04 0.03
0.01 0.01 0.01 0.01 0.01 0.01 0.01 0.01 0.01 0.01 0.01 0.01 0.01 0.01 0.01 0.02 0.02 0.02 0.02 0.02 0.01 0.01 0.01 0.01 0.01 0.01 0.02 0.02 0.01 0.02 0.02 0.02 0.01 0.01 0.01 0.01 0.02 0.05 0.08 0.07 0.06 0.06 0.05
0.01 0.01 0.00 0.01 0.01 0.01 0.01 0.02 0.02 0.02 0.01 0.01 0.01 0.01 0.01 0.01 0.01 0.01 0.01 0.02 0.02 0.02 0.02 0.02 0.02 0.01 0.02 0.03 0.03 0.03 0.04 0.03 0.02 0.01 0.01 0.01 0.02 0.06 0.09 0.08 0.06 0.06 0.06
0.02 0.01 0.01 0.01 0.01 0.02 0.02 0.02 0.02 0.01 0.01 0.01 0.01 0.01 0.01 0.01 0.01 0.01 0.02 0.03 0.03 0.03 0.03 0.04 0.03 0.03 0.02 0.03 0.04 0.04 0.04 0.03 0.02 0.02 0.02 0.02 0.03 0.06 0.08 0.09 0.09 0.08 0.08
0.02 0.02 0.02 0.02 0.02 0.02 0.01 0.01 0.01 0.02 0.02 0.02 0.01 0.01 0.01 0.01 0.01 0.01 0.02 0.03 0.03 0.03 0.03 0.04 0.04 0.04 0.03 0.02 0.03 0.03 0.03 0.03 0.03 0.03 0.02 0.04 0.07 0.09 0.09 0.10 0.10 0.09 0.10
0.02 0.03 0.02 0.01 0.01 0.01 0.01 0.01 0.01 0.01 0.02 0.03 0.03 0.03 0.02 0.02 0.02 0.01 0.02 0.02 0.03 0.03 0.03 0.04 0.04 0.03 0.03 0.04 0.05 0.04 0.04 0.04 0.04 0.03 0.03 0.06 0.07 0.09 0.11 0.12 0.11 0.11 0.09
0.03 0.02 0.01 0.01 0.01 0.01 0.01 0.01 0.01 0.02 0.03 0.04 0.04 0.04 0.03 0.03 0.03 0.02 0.02 0.02 0.02 0.03 0.03 0.02 0.02 0.02 0.02 0.03 0.04 0.04 0.04 0.03 0.03 0.03 0.04 0.06 0.08 0.10 0.12 0.13 0.14 0.13 0.11
0.03 0.02 0.02 0.01 0.01 0.01 0.02 0.02 0.01 0.02 0.04 0.04 0.04 0.04 0.04 0.04 0.04 0.04 0.03 0.03 0.02 0.02 0.02 0.01 0.01 0.02 0.02 0.02 0.02 0.02 0.03 0.04 0.05 0.05 0.05 0.07 0.07 0.09 0.12 0.15 0.15 0.15 0.13
0.04 0.03 0.03 0.03 0.03 0.03 0.03 0.03 0.03 0.03 0.04 0.04 0.04 0.04 0.04 0.04 0.04 0.05 0.05 0.04 0.04 0.03 0.02 0.02 0.01 0.02 0.02 0.02 0.02 0.03 0.03 0.03 0.03 0.04 0.05 0.06 0.07 0.08 0.10 0.12 0.13 0.13 0.13
0.07 0.05 0.04 0.04 0.04 0.04 0.04 0.04 0.03 0.03 0.04 0.04 0.05 0.05 0.05 0.05 0.05 0.05 0.04 0.03 0.03 0.03 0.04 0.04 0.03 0.03 0.03 0.03 0.03 0.03 0.03 0.02 0.02 0.03 0.03 0.04 0.06 0.08 0.10 0.10 0.10 0.11 0.13
0.09 0.08 0.08 0.06 0.05 0.04 0.04 0.04 0.03 0.03 0.04 0.05 0.06 0.06 0.05 0.05 0.04 0.03 0.03 0.03 0.02 0.03 0.04 0.06 0.05 0.04 0.02 0.02 0.03 0.03 0.03 0.03 0.02 0.02 0.01 0.02 0.04 0.07 0.09 0.08 0.08 0.10 0.13
0.11 0.10 0.10 0.07 0.05 0.04 0.04 0.04 0.03 0.03 0.03 0.03 0.02 0.05 0.05 0.03 0.03 0.03 0.03 0.03 0.04 0.03 0.04 0.05 0.04 0.03 0.02 0.02 0.02 0.02 0.03 0.03 0.02 0.01 0.01 0.02 0.02 0.04 0.08 0.11 0.11 0.11 0.12
0.12 0.11 0.08 0.08 0.08 0.06 0.05 0.05 0.04 0.04 0.04 0.03 0.02 0.02 0.02 0.03 0.03 0.03 0.02 0.02 0.03 0.03 0.03 0.03 0.04 0.04 0.03 0.02 0.02 0.02 0.02 0.02 0.01 0.01 0.01 0.01 0.02 0.02 0.04 0.06 0.07 0.07 0.09
0.12 0.12 0.10 0.10 0.11 0.10 0.06 0.04 0.03 0.04 0.03 0.02 0.02 0.02 0.02 0.02 0.03 0.02 0.02 0.03 0.04 0.04 0.03 0.03 0.03 0.03 0.03 0.03 0.02 0.01 0.01 0.01 0.02 0.02 0.02 0.02 0.02 0.02 0.03 0.04 0.04 0.03 0.03
0.13 0.11 0.10 0.09 0.09 0.10 0.09 0.06 0.05 0.04 0.03 0.03 0.02 0.01 0.01 0.01 0.01 0.02 0.02 0.02 0.03 0.05 0.05 0.03 0.03 0.03 0.03 0.03 0.03 0.02 0.01 0.02 0.04 0.05 0.06 0.05 0.04 0.03 0.04 0.05 0.03 0.02 0.03
0.12 0.11 0.07 0.09 0.12 0.11 0.08 0.06 0.04 0.03 0.02 0.02 0.02 0.01 0.01 0.01 0.01 0.01 0.02 0.02 0.02 0.02 0.04 0.03 0.02 0.02 0.02 0.03 0.03 0.03 0.02 0.02 0.03 0.06 0.08 0.07 0.05 0.04 0.04 0.05 0.04 0.04 0.03
0.09 0.10 0.09 0.11 0.13 0.13 0.08 0.05 0.04 0.03 0.02 0.01 0.01 0.01 0.01 0.00 0.01 0.01 0.02 0.02 0.02 0.02 0.02 0.02 0.01 0.01 0.02 0.02 0.02 0.03 0.02 0.02 0.02 0.04 0.07 0.08 0.07 0.05 0.04 0.04 0.04 0.04 0.03
0.09 0.08 0.08 0.07 0.09 0.08 0.06 0.05 0.04 0.03 0.03 0.02 0.02 0.01 0.01 0.01 0.01 0.02 0.02 0.03 0.03 0.02 0.02 0.01 0.01 0.01 0.01 0.02 0.02 0.02 0.03 0.03 0.02 0.02 0.03 0.05 0.07 0.06 0.04 0.04 0.03 0.02 0.02
0.09 0.07 0.05 0.04 0.04 0.03 0.03 0.04 0.05 0.04 0.04 0.03 0.03 0.03 0.03 0.03 0.03 0.03 0.03 0.03 0.03 0.02 0.02 0.02 0.02 0.02 0.01 0.01 0.02 0.02 0.03 0.03 0.03 0.03 0.03 0.03 0.04 0.06 0.06 0.05 0.03 0.02 0.02
MSLP
1014.92 1014.62 1014.54 1014.68 1014.96 1015.30 1015.61 1015.83 1015.94 1015.97 1015.96 1015.98 1016.07 1016.27 1016.56 1016.91 1017.27 1017.60 1017.86 1018.04 1018.15 1018.22 1018.27 1018.33 1018.41 1018.51 1018.62 1018.71 1018.79 1018.84 1018.87 1018.90 1018.93 1018.97 1019.03 1019.10 1019.17 1019.22 1019.27 1019.31 1019.34 1019.38 1019.44
1014.53 1014.34 1014.37 1014.61 1014.99 1015.40 1015.77 1016.05 1016.20 1016.27 1016.29 1016.34 1016.46 1016.66 1016.95 1017.29 1017.62 1017.92 1018.15 1018.30 1018.40 1018.46 1018.52 1018.59 1018.69 1018.79 1018.90 1018.98 1019.03 1019.05 1019.05 1019.05 1019.06 1019.10 1019.17 1019.25 1019.34 1019.42 1019.49 1019.53 1019.56 1019.60 1019.65
1014.08 1014.02 1014.17 1014.51 1014.97 1015.45 1015.89 1016.22 1016.43 1016.54 1016.61 1016.70 1016.83 1017.05 1017.32 1017.63 1017.93 1018.18 1018.36 1018.48 1018.55 1018.61 1018.67 1018.76 1018.87 1018.99 1019.10 1019.17 1019.20 1019.20 1019.18 1019.16 1019.16 1019.21 1019.29 1019.40 1019.52 1019.62 1019.70 1019.76 1019.80 1019.83 1019.88
1013.69 1013.75 1014.00 1014.43 1014.95 1015.49 1015.97 1016.35 1016.60 1016.77 1016.88 1017.00 1017.15 1017.37 1017.62 1017.89 1018.14 1018.34 1018.48 1018.56 1018.61 1018.66 1018.74 1018.85 1018.98 1019.11 1019.23 1019.30 1019.32 1019.30 1019.26 1019.23 1019.24 1019.30 1019.40 1019.54 1019.68 1019.81 1019.91 1019.98 1020.02 1020.05 1020.10
1013.46 1013.62 1013.95 1014.43 1014.99 1015.55 1016.05 1016.45 1016.73 1016.92 1017.07 1017.21 1017.39 1017.60 1017.84 1018.07 1018.28 1018.43 1018.52 1018.57 1018.61 1018.67 1018.76 1018.89 1019.04 1019.20 1019.32 1019.38 1019.39 1019.36 1019.31 1019.28 1019.29 1019.37 1019.49 1019.65 1019.82 1019.97 1020.08 1020.15 1020.20 1020.23 1020.29
1013.47 1013.69 1014.06 1014.56 1015.12 1015.67 1016.15 1016.53 1016.82 1017.02 1017.18 1017.35 1017.53 1017.75 1017.97 1018.18 1018.35 1018.46 1018.53 1018.56 1018.60 1018.66 1018.77 1018.93 1019.10 1019.26 1019.39 1019.45 1019.45 1019.41 1019.35 1019.31 1019.33 1019.41 1019.54 1019.72 1019.90 1020.05 1020.17 1020.25 1020.30 1020.34 1020.40
1013.71 1013.96 1014.34 1014.82 1015.34 1015.85 1016.28 1016.63 1016.89 1017.08 1017.25 1017.42 1017.62 1017.84 1018.06 1018.25 1018.40 1018.50 1018.55 1018.57 1018.62 1018.69 1018.82 1018.98 1019.17 1019.34 1019.46 1019.51 1019.50 1019.44 1019.37 1019.32 1019.33 1019.41 1019.54 1019.72 1019.90 1020.05 1020.17 1020.25 1020.30 1020.35 1020.43
1014.13 1014.39 1014.75 1015.19 1015.65 1016.09 1016.46 1016.74 1016.96 1017.14 1017.30 1017.48 1017.69 1017.91 1018.14 1018.33 1018.47 1018.56 1018.61 1018.64 1018.68 1018.77 1018.90 1019.07 1019.26 1019.42 1019.53 1019.57 1019.53 1019.46 1019.37 1019.30 1019.30 1019.36 1019.48 1019.64 1019.80 1019.95 1020.06 1020.14 1020.20 1020.27 1020.36
1014.64 1014.89 1015.22 1015.61 1016.01 1016.37 1016.66 1016.89 1017.06 1017.20 1017.36 1017.54 1017.76 1018.00 1018.23 1018.43 1018.58 1018.67 1018.71 1018.74 1018.79 1018.87 1019.00 1019.16 1019.34 1019.48 1019.57 1019.59 1019.54 1019.45 1019.34 1019.25 1019.22 1019.26 1019.35 1019.49 1019.63 1019.76 1019.86 1019.94 1020.01 1020.10 1020.21
1015.13 1015.38 1015.69 1016.04 1016.37 1016.65 1016.88 1017.04 1017.17 1017.29 1017.43 1017.62 1017.85 1018.10 1018.34 1018.55 1018.70 1018.79 1018.83 1018.85 1018.89 1018.96 1019.08 1019.22 1019.38 1019.50 1019.58 1019.58 1019.52 1019.41 1019.28 1019.17 1019.12 1019.12 1019.18 1019.28 1019.40 1019.51 1019.61 1019.69 1019.77 1019.87 1020.02
1015.53 1015.79 1016.09 1016.40 1016.68 1016.91 1017.07 1017.18 1017.27 1017.37 1017.51 1017.70 1017.93 1018.19 1018.44 1018.65 1018.79 1018.88 1018.92 1018.93 1018.95 1019.00 1019.09 1019.22 1019.35 1019.46 1019.52 1019.51 1019.45 1019.33 1019.20 1019.08 1019.00 1018.97 1018.99 1019.05 1019.14 1019.23 1019.32 1019.41 1019.50 1019.63 1019.79
1015.82 1016.11 1016.41 1016.70 1016.94 1017.11 1017.23 1017.30 1017.36 1017.44 1017.57 1017.75 1017.98 1018.24 1018.48 1018.69 1018.83 1018.91 1018.93 1018.93 1018.93 1018.96 1019.02 1019.12 1019.23 1019.33 1019.39 1019.39 1019.33 1019.23 1019.10 1018.97 1018.87 1018.81 1018.80 1018.83 1018.88 1018.95 1019.03 1019.12 1019.23 1019.37 1019.55
1016.03 1016.34 1016.65 1016.92 1017.13 1017.26 1017.34 1017.38 1017.41 1017.47 1017.59 1017.76 1017.98 1018.22 1018.45 1018.65 1018.77 1018.84 1018.85 1018.83 1018.81 1018.82 1018.86 1018.94 1019.04 1019.13 1019.20 1019.22 1019.18 1019.10 1018.99 1018.86 1018.75 1018.66 1018.62 1018.61 1018.63 1018.68 1018.75 1018.84 1018.96 1019.11 1019.30
1016.22 1016.55 1016.85 1017.10 1017.27 1017.37 1017.41 1017.41 1017.43 1017.47 1017.57 1017.72 1017.92 1018.14 1018.35 1018.52 1018.63 1018.68 1018.68 1018.65 1018.62 1018.61 1018.63 1018.70 1018.79 1018.89 1018.97 1019.01 1019.00 1018.95 1018.86 1018.74 1018.62 1018.51 1018.43 1018.39 1018.38 1018.40 1018.46 1018.55 1018.68 1018.83 1019.02
1016.46 1016.79 1017.07 1017.28 1017.40 1017.46 1017.46 1017.44 1017.43 1017.46 1017.53 1017.66 1017.84 1018.03 1018.21 1018.35 1018.44 1018.48 1018.47 1018.43 1018.39 1018.37 1018.39 1018.44 1018.53 1018.62 1018.72 1018.78 1018.80 1018.77 1018.70 1018.59 1018.47 1018.34 1018.23 1018.15 1018.11 1018.11 1018.16 1018.25 1018.37 1018.53 1018.72
1016.80 1017.10 1017.33 1017.48 1017.56 1017.57 1017.54 1017.50 1017.47 1017.48 1017.54 1017.64 1017.78 1017.93 1018.07 1018.19 1018.26 1018.29 1018.28 1018.24 1018.20 1018.18 1018.18 1018.22 1018.29 1018.38 1018.47 1018.55 1018.58 1018.57 1018.51 1018.41 1018.27 1018.13 1017.98 1017.87 1017.80 1017.78 1017.82 1017.91 1018.04 1018.20 1018.38
1017.23 1017.48 1017.65 1017.73 1017.75 1017.72 1017.67 1017.62 1017.59 1017.60 1017.64 1017.71 1017.81 1017.93 1018.03 1018.12 1018.17 1018.19 1018.18 1018.15 1018.11 1018.08 1018.07 1018.08 1018.13 1018.19 1018.26 1018.32 1018.36 1018.35 1018.29 1018.18 1018.04 1017.87 1017.70 1017.56 1017.46 1017.43 1017.46 1017.54 1017.68 1017.85 1018.04
1017.72 1017.90 1017.99 1018.01 1017.99 1017.94 1017.88 1017.85 1017.83 1017.84 1017.88 1017.93 1018.00 1018.07 1018.13 1018.19 1018.22 1018.23 1018.22 1018.19 1018.15 1018.11 1018.07 1018.05 1018.06 1018.08 1018.11 1018.13 1018.14 1018.12 1018.05 1017.93 1017.77 1017.58 1017.40 1017.24 1017.12 1017.08 1017.10 1017.19 1017.34 1017.53 1017.72
1018.19 1018.30 1018.32 1018.30 1018.25 1018.21 1018.18 1018.18 1018.20 1018.24 1018.28 1018.33 1018.36 1018.39 1018.41 1018.43 1018.43 1018.43 1018.42 1018.39 1018.34 1018.28 1018.21 1018.15 1018.09 1018.05 1018.02 1018.00 1017.97 1017.91 1017.82 1017.69 1017.51 1017.32 1017.12 1016.95 1016.82 1016.77 1016.80 1016.90 1017.07 1017.27 1017.48
1018.57 1018.63 1018.61 1018.56 1018.52 1018.51 1018.55 1018.61 1018.69 1018.77 1018.84 1018.87 1018.88 1018.87 1018.84 1018.82 1018.79 1018.77 1018.75 1018.71 1018.65 1018.57 1018.46 1018.35 1018.23 1018.12 1018.02 1017.93 1017.85 1017.76 1017.64 1017.49 1017.32 1017.12 1016.92 1016.74 1016.62 1016.58 1016.62 1016.73 1016.92 1017.13 1017.36
1018.84 1018.86 1018.83 1018.80 1018.79 1018.85 1018.96 1019.11 1019.26 1019.40 1019.49 1019.53 1019.51 1019.45 1019.38 1019.31 1019.25 1019.21 1019.16 1019.11 1019.04 1018.93 1018.79 1018.62 1018.44 1018.26 1018.09 1017.94 1017.81 1017.68 1017.55 1017.39 1017.22 1017.03 1016.84 1016.68 1016.57 1016.54 1016.59 1016.72 1016.91 1017.14 1017.37
1018.99 1019.01 1019.00 1019.00 1019.06 1019.19 1019.39 1019.63 1019.86 1020.05 1020.17 1020.21 1020.17 1020.07 1019.95 1019.84 1019.74 1019.66 1019.60 1019.54 1019.45 1019.32 1019.15 1018.94 1018.71 1018.47 1018.24 1018.04 1017.86 1017.70 1017.55 1017.40 1017.24 1017.07 1016.90 1016.77 1016.68 1016.67 1016.73 1016.87 1017.07 1017.29 1017.50
1019.07 1019.12 1019.14 1019.20 1019.32 1019.53 1019.81 1020.13 1020.43 1020.67 1020.81 1020.84 1020.78 1020.65 1020.48 1020.32 1020.19 1020.09 1020.01 1019.93 1019.83 1019.69 1019.50 1019.26 1018.99 1018.70 1018.43 1018.19 1017.98 1017.80 1017.65 1017.50 1017.36 1017.21 1017.09 1016.98 1016.93 1016.94 1017.02 1017.17 1017.36 1017.56 1017.74
1019.17 1019.26 1019.33 1019.43 1019.61 1019.88 1020.22 1020.59 1020.93 1021.19 1021.34 1021.36 1021.28 1021.11 1020.91 1020.72 1020.55 1020.42 1020.33 1020.24 1020.14 1019.99 1019.79 1019.53 1019.24 1018.93 1018.62 1018.35 1018.12 1017.93 1017.77 1017.64 1017.52 1017.41 1017.32 1017.26 1017.25 1017.29 1017.39 1017.54 1017.72 1017.89 1018.03
1019.36 1019.49 1019.60 1019.74 1019.95 1020.24 1020.60 1020.98 1021.33 1021.60 1021.74 1021.75 1021.64 1021.45 1021.22 1021.00 1020.81 1020.66 1020.56 1020.46 1020.35 1020.20 1019.99 1019.73 1019.42 1019.09 1018.77 1018.48 1018.23 1018.03 1017.87 1017.75 1017.65 1017.58 1017.53 1017.51 1017.54 1017.62 1017.75 1017.91 1018.09 1018.24 1018.33
1019.69 1019.86 1019.99 1020.13 1020.34 1020.62 1020.96 1021.32 1021.64 1021.88 1022.00 1021.99 1021.87 1021.66 1021.42 1021.18 1020.97 1020.81 1020.69 1020.58 1020.47 1020.31 1020.10 1019.83 1019.51 1019.17 1018.84 1018.53 1018.26 1018.04 1017.88 1017.75 1017.67 1017.63 1017.62 1017.65 1017.73 1017.86 1018.03 1018.22 1018.40 1018.54 1018.60
Thickness
5780 5780 5777 5775 5774 5773 5771 5770 5768 5767 5765 5764 5762 5760 5758 5756 5755 5753 5751 5749 5748 5747 5746 5745 5744 5743 5742 5741 5740 5738 5737 5736 5735 5734 5733 5732 5732 5731 5730 5730 5729 5728 5727
5784 5780 5777 5775 5773 5771 5769 5767 5765 5763 5762 5760 5758 5757 5755 5753 5752 5750 5749 5747 5746 5745 5744 5743 5742 5741 5739 5738 5737 5736 5735 5734 5733 5732 5731 5730 5730 5729 5729 5728 5727 5726 5725
5784 5780 5776 5774 5771 5769 5767 5765 5762 5760 5758 5756 5755 5753 5751 5750 5749 5747 5746 5745 5743 5742 5741 5740 5739 5738 5736 5735 5734 5733 5733 5732 5731 5730 5729 5728 5728 5727 5727 5726 5725 5725 5724
5783 5779 5775 5772 5769 5767 5765 5762 5760 5757 5755 5753 5751 5750 5748 5747 5745 5744 5743 5741 5740 5739 5738 5737 5736 5735 5733 5733 5732 5731 5730 5729 5728 5727 5726 5726 5726 5725 5725 5724 5723 5723 5722
5779 5776 5773 5770 5767 5764 5761 5759 5757 5754 5752 5750 5748 5746 5745 5743 5742 5740 5739 5738 5737 5736 5735 5733 5732 5732 5730 5730 5729 5729 5728 5727 5726 5725 5724 5724 5723 5723 5723 5722 5722 5721 5720
5776 5773 5770 5768 5764 5761 5758 5756 5753 5751 5749 5747 5744 5742 5741 5740 5738 5737 5736 5735 5733 5732 5731 5730 5729 5728 5727 5727 5726 5726 5726 5725 5724 5723 5723 5722 5721 5721 5721 5720 5720 5719 5718
5771 5769 5766 5764 5761 5758 5755 5752 5750 5748 5745 5743 5741 5739 5737 5736 5735 5734 5732 5731 5730 5729 5728 5726 5725 5725 5724 5723 5723 5723 5723 5723 5722 5721 5720 5720 5720 5719 5719 5718 5717 5716 5716
5767 5765 5762 5760 5757 5754 5752 5749 5747 5744 5742 5740 5738 5736 5734 5733 5731 5730 5729 5728 5726 5725 5724 5723 5722 5721 5721 5720 5720 5720 5720 5720 5720 5719 5718 5718 5718 5717 5717 5717 5716 5715 5714
5762 5760 5757 5755 5753 5751 5748 5746 5743 5741 5738 5736 5734 5732 5730 5728 5727 5726 5725 5724 5723 5722 5720 5719 5718 5717 5717 5716 5716 5717 5717 5717 5717 5717 5716 5716 5715 5715 5715 5715 5714 5713 5712
5757 5755 5753 5751 5749 5747 5744 5742 5739 5737 5734 5732 5730 5728 5726 5724 5723 5722 5721 5720 5719 5718 5717 5716 5715 5714 5714 5713 5713 5713 5714 5714 5714 5714 5714 5713 5713 5713 5713 5713 5712 5711 5710
5751 5750 5748 5746 5744 5742 5740 5737 5735 5733 5730 5727 5725 5724 5721 5720 5718 5717 5716 5715 5714 5714 5713 5712 5711 5710 5710 5710 5710 5710 5711 5711 5711 5710 5711 5711 5711 5711 5711 5710 5710 5709 5708
5744 5744 5743 5742 5740 5737 5735 5733 5731 5728 5726 5723 5721 5719 5717 5715 5713 5712 5711 5710 5709 5709 5708 5708 5707 5707 5706 5706 5706 5706 5707 5707 5707 5707 5708 5708 5708 5708 5708 5708 5707 5707 5706
5740 5739 5739 5737 5735 5732 5730 5728 5725 5723 5721 5718 5716 5714 5712 5710 5708 5707 5706 5705 5704 5704 5703 5703 5703 5702 5702 5701 5701 5702 5702 5703 5703 5703 5704 5705 5705 5705 5705 5705 5705 5704 5703
5735 5734 5733 5731 5730 5727 5725 5723 5720 5718 5716 5713 5711 5709 5707 5705 5703 5702 5701 5699 5699 5698 5697 5697 5697 5697 5697 5697 5696 5697 5698 5698 5699 5699 5700 5701 5701 5701 5701 5701 5701 5700 5700
5729 5728 5728 5726 5724 5722 5720 5718 5715 5712 5710 5708 5706 5704 5702 5700 5698 5696 5695 5694 5693 5692 5691 5691 5691 5692 5692 5692 5692 5692 5693 5693 5694 5695 5695 5696 5697 5697 5697 5697 5697 5696 5697
5724 5724 5723 5721 5719 5717 5715 5712 5710 5707 5704 5702 5700 5698 5696 5694 5692 5690 5688 5688 5687 5686 5685 5685 5685 5686 5686 5686 5687 5687 5687 5688 5689 5690 5691 5691 5692 5692 5692 5692 5692 5693 5693
5721 5719 5717 5716 5714 5711 5709 5707 5704 5701 5698 5696 5694 5692 5690 5688 5686 5684 5682 5681 5681 5680 5679 5678 5679 5679 5680 5680 5681 5681 5681 5682 5683 5684 5685 5686 5686 5686 5687 5688 5688 5688 5689
5717 5715 5712 5711 5708 5705 5703 5700 5697 5694 5692 5690 5687 5685 5683 5681 5679 5678 5676 5674 5674 5674 5673 5672 5671 5672 5672 5673 5673 5674 5675 5676 5677 5678 5679 5679 5680 5680 5681 5682 5683 5684 5685
5712 5710 5706 5704 5702 5699 5696 5694 5691 5688 5685 5683 5681 5678 5676 5675 5673 5671 5669 5667 5667 5667 5666 5665 5664 5664 5664 5665 5666 5667 5668 5668 5669 5670 5671 5672 5673 5673 5674 5675 5677 5678 5680
5706 5704 5701 5698 5695 5693 5690 5687 5683 5680 5678 5675 5673 5671 5669 5667 5666 5664 5662 5660 5660 5659 5658 5657 5656 5655 5655 5656 5658 5659 5659 5660 5661 5662 5663 5664 5664 5665 5667 5668 5669 5671 5673
5700 5697 5694 5691 5689 5687 5683 5680 5676 5672 5670 5668 5665 5664 5662 5660 5658 5656 5654 5653 5651 5650 5649 5648 5648 5647 5646 5647 5648 5649 5650 5651 5652 5653 5654 5655 5656 5657 5658 5660 5661 5663 5665
5694 5690 5688 5685 5683 5681 5677 5673 5670 5666 5662 5660 5658 5657 5655 5653 5651 5649 5646 5644 5642 5641 5640 5639 5638 5637 5636 5637 5636 5637 5638 5640 5642 5644 5645 5646 5646 5648 5649 5651 5652 5654 5656
5688 5685 5682 5678 5676 5673 5670 5667 5663 5659 5656 5653 5651 5649 5647 5645 5643 5640 5638 5636 5634 5632 5630 5630 5629 5628 5626 5626 5627 5627 5626 5627 5629 5633 5634 5635 5636 5638 5640 5641 5643 5646 5648
5682 5679 5675 5672 5670 5666 5663 5660 5657 5652 5647 5645 5642 5641 5639 5637 5635 5633 5630 5628 5626 5624 5622 5621 5619 5619 5618 5617 5617 5617 5617 5618 5618 5621 5624 5625 5627 5628 5630 5632 5634 5637 5639
5677 5673 5670 5667 5664 5660 5657 5654 5650 5645 5641 5638 5635 5633 5631 5629 5627 5625 5623 5620 5618 5616 5614 5612 5611 5611 5610 5609 5608 5608 5608 5609 5610 5611 5613 5614 5616 5618 5621 5622 5625 5627 5630
5671 5667 5663 5661 5657 5654 5650 5646 5643 5638 5634 5631 5627 5625 5622 5621 5619 5617 5615 5613 5610 5608 5606 5605 5604 5603 5602 5601 5601 5600 5600 5600 5601 5602 5603 5604 5605 5608 5611 5613 5615 5618 5621